SCP
0 0 0 0 0 0 0 0 0 0 0 0 0 0 0 0 0 0 0 0 0 0 0 0 0 0 0 0 0 0 0 0 0 0 0 0 0 0 0 0 0 0 0 0 0 0 0 0 -0 -0 0 0 0 0
0 0 0 0 0 0 0 0 0 0 0 0 0 0 0 0 0 0 0 0 0 0 0 0 0 0 0 0 0 0 0 2 1 1 0 0 0 0 0 0 0 0 0 0 0 1 0 -0 -0 0 0 0 0 0
0 0 0 0 0 0 0 0 0 0 0 0 0 0 0 0 0 0 0 0 0 0 0 0 0 0 0 0 0 0 0 0 0 0 1 1 0 -0 -0 0 0 0 0 0 0 0 0 0 0 0 0 0 0 0
0 0 0 0 0 0 0 0 0 0 0 0 0 0 0 0 0 0 0 0 0 0 0 0 0 0 0 0 0 0 0 0 0 0 0 1 0 0 0 0 0 0 0 0 0 0 0 0 0 0 0 0 0 0
0 0 0 0 0 0 0 0 0 0 0 0 0 0 0 0 0 0 0 0 0 0 0 0 0 0 0 0 0 0 0 0 0 0 1 1 1 0 0 0 0 0 0 0 0 0 0 0 0 0 0 0 0 0
0 0 0 0 0 0 0 0 0 0 0 0 0 0 0 0 0 0 0 0 0 0 0 0 0 0 0 0 0 0 0 0 0 0 1 1 1 1 0 0 1 0 1 0 0 0 0 0 0 0 0 0 0 0
0 0 0 0 0 0 0 0 0 0 0 0 0 0 0 0 0 0 0 0 0 0 0 0 0 0 0 0 0 0 0 0 0 0 1 1 0 0 0 0 0 0 0 0 0 0 0 0 0 0 0 0 0 0
0 0 0 0 0 0 0 0 0 0 0 0 0 0 0 0 0 0 0 0 0 0 0 0 0 0 0 0 0 0 0 0 0 1 1 1 1 1 0 0 0 0 0 0 0 0 0 0 0 0 0 0 0 0
0 0 0 0 0 0 0 0 0 0 0 0 0 0 0 0 0 0 0 -0 0 0 0 0 0 0 0 0 0 0 0 0 0 1 1 0 0 0 0 0 0 0 0 0 0 0 0 0 0 0 0 0 0 0
0 0 0 0 0 0 0 0 0 0 0 0 0 0 0 0 0 0 0 0 0 0 0 0 0 0 0 0 0 0 0 0 0 0 0 1 0 0 0 0 0 0 0 -0 0 0 0 0 0 0 0 0 0 0
0 0 0 0 0 0 0 0 0 0 0 0 0 0 0 0 0 0 0 0 0 0 -0 0 0 0 0 0 0 0 0 0 0 0 0 0 0 0 0 0 0 0 -0 0 0 0 0 0 0 0 0 0 0 0
0 0 0 0 0 0 0 0 0 0 0 0 0 0 0 0 0 0 0 0 0 0 0 0 0 0 0 0 0 1 0 1 0 0 0 0 0 0 0 0 0 0 0 0 0 0 -0 -0 0 0 0 0 0 0
0 0 0 0 0 0 0 0 0 0 0 0 0 0 0 0 0 0 0 0 0 0 0 0 0 0 0 0 0 0 0 0 0 0 0 0 1 0 0 0 0 0 0 0 0 -0 -0 -0 -0 0 0 0 -0 -0
0 0 0 0 0 0 0 0 -0 0 0 0 0 0 0 0 0 0 0 0 0 0 0 0 0 0 0 0 0 0 0 0 0 0 0 0 0 0 0 0 0 0 0 0 0 -0 -0 -0 -0 -0 -0 -0 -0 -0
0 0 0 0 0 0 0 0 -0 0 0 0 0 0 0 0 0 0 0 0 0 0 0 0 0 0 0 0 0 0 0 0 0 0 0 0 1 0 0 0 0 0 0 0 0 -0 -0 -0 -0 -0 -0 -0 -0 -0
0 0 0 0 0 0 0 0 0 0 0 0 0 0 0 0 0 0 0 0 0 0 0 0 0 0 0 0 0 0 0 0 0 0 0 1 0 0 0 0 0 0 0 0 0 -0 0 -0 -0 -0 -0 -0 -0 -0
0 0 0 0 0 0 0 0 0 0 0 0 0 0 0 0 0 0 0 0 0 0 0 0 0 0 0 0 0 0 0 0 0 0 1 1 1 1 0 0 0 0 0 0 0 0 0 0 0 0 -0 -0 -0 -0
0 0 0 0 0 0 0 0 0 0 0 0 0 0 0 0 0 0 -0 0 0 0 0 0 0 0 0 0 0 0 0 0 0 0 0 0 0 0 0 0 0 0 0 0 0 0 0 0 0 0 0 0 -0 0
0 0 0 0 0 0 0 0 0 0 0 0 0 0 0 0 0 0 -0 0 0 0 0 0 0 0 0 0 0 0 0 0 0 0 0 0 0 0 0 0 0 0 0 0 0 0 0 0 0 0 0 0 0 0
0 0 0 0 0 0 0 0 0 0 0 0 0 0 0 0 0 -0 -0 -0 0 0 0 0 0 0 0 0 0 0 0 0 0 0 0 0 0 0 0 0 0 0 0 0 0 0 0 0 0 0 0 0 0 0
0 0 0 0 0 0 0 0 0 0 0 0 0 0 0 0 0 0 0 -0 -0 0 0 0 0 0 0 0 1 1 0 0 0 0 0 0 0 0 0 0 0 0 0 0 0 0 0 0 0 0 0 0 0 0
0 0 0 0 0 0 0 0 0 0 0 0 0 0 0 0 0 0 0 0 -0 0 0 0 0 0 0 0 0 1 0 1 1 0 0 0 0 0 0 0 0 0 0 0 0 0 0 0 0 0 0 0 0 0
0 0 0 0 0 0 0 0 0 0 0 0 0 0 0 0 0 0 0 0 0 0 0 0 0 0 0 0 0 0 0 0 0 0 0 0 0 0 0 0 0 0 0 0 0 0 0 0 0 0 0 0 0 0
0 0 0 0 0 0 0 0 0 0 0 0 0 0 0 -0 -0 0 0 0 0 0 0 0 0 0 0 0 0 0 0 0 0 0 0 0 0 0 0 0 0 0 0 0 0 0 0 0 0 0 0 0 0 0
0 0 0 0 0 0 0 0 0 0 0 0 0 0 0 0 0 0 0 0 0 0 0 0 0 0 0 0 0 0 0 0 0 0 0 0 0 0 0 0 0 0 0 0 0 0 0 0 0 0 0 0 0 0
0 0 0 0 0 0 0 0 0 0 0 0 0 0 0 0 0 0 0 0 0 0 0 0 0 0 0 0 0 0 0 0 0 0 0 0 0 0 0 0 0 0 0 0 0 0 0 0 0 0 0 0 0 0
0 0 0 0 0 0 0 0 0 0 0 0 0 0 0 0 0 0 0 0 0 0 0 0 0 0 0 0 0 0 0 0 0 0 0 0 0 0 0 0 0 0 0 0 0 -0 -0 -0 -0 0 0 0 0 0
0 0 0 0 0 0 0 0 0 0 0 0 0 0 0 0 0 0 0 0 1 0 0 0 0 0 0 0 0 0 0 0 0 0 0 0 0 0 0 0 0 0 0 0 0 0 -0 -0 -0 -0 0 0 0 0
0 0 0 0 -0 0 0 0 0 0 0 0 0 0 0 0 0 0 0 0 0 1 0 0 0 0 0 0 0 0 0 0 0 0 0 0 0 0 0 0 0 0 0 0 0 0 -0 -0 0 0 0 0 0 0
-0 -0 -0 0 0 0 0 0 0 0 0 0 0 0 -0 -0 -0 -0 0 0 0 0 0 1 0 0 0 0 0 0 0 0 0 0 0 0 0 0 0 0 0 0 0 0 0 0 0 0 0 0 0 0 0 0
-0 -0 -0 -0 -0 0 0 0 0 0 0 0 0 -0 0 -0 -0 0 0 0 0 0 0 0 0 0 0 0 0 0 0 0 0 0 0 0 0 0 0 0 0 0 0 0 0 0 0 0 0 0 0 0 0 0
-0 0 0 0 0 0 -0 -0 -0 0 -0 0 -0 0 -0 -0 0 0 0 0 0 0 0 0 0 0 0 0 0 0 0 0 0 0 0 0 0 0 0 0 0 0 0 0 0 0 0 0 0 0 0 0 0 0
-0 -0 -0 -0 -0 -0 -0 -0 -0 -0 -0 0 -0 -0 -0 0 0 0 0 0 0 0 0 0 0 0 0 0 0 0 0 0 0 0 0 0 0 0 0 0 0 0 0 0 0 0 0 0 0 0 0 0 0 0
Wind_Speed_500mb
48 43 37 33 31 29 27 27 25 20 18 17 18 18 18 16 12 7 14 16 15 18 45 18 21 21 15 13 18 12 11 16 15 22 23 19 9 10 12 17 33 20 16 16 19 16 16 23 18 27 4 5 13 19
49 43 38 34 31 28 26 28 28 25 20 18 18 19 19 19 13 11 14 14 12 19 25 22 27 27 23 15 20 15 10 6 22 9 11 3 9 5 24 17 5 9 6 6 21 9 12 25 15 16 10 15 15 20
49 44 40 36 34 29 24 25 27 28 23 20 19 19 19 21 15 11 15 19 13 17 29 45 49 34 34 30 21 16 11 10 3 10 17 4 35 16 18 12 23 12 7 4 6 21 21 23 13 13 11 14 17 23
49 45 41 38 36 29 28 24 26 28 25 22 20 19 21 22 18 11 10 14 12 11 11 22 16 41 33 27 27 29 25 19 18 16 20 9 12 6 12 12 9 10 14 6 4 8 13 17 18 15 15 18 23 28
50 46 43 40 38 30 27 29 27 28 26 22 20 21 21 22 20 12 13 15 17 15 9 25 38 27 25 24 27 26 24 20 18 15 13 11 9 7 3 2 15 23 15 11 3 18 10 21 21 19 22 25 28 33
50 48 45 42 37 33 27 31 29 28 26 23 21 21 21 21 21 13 13 21 19 17 8 8 22 24 29 29 26 26 23 20 21 14 15 9 3 8 8 7 15 12 18 15 15 15 27 29 25 23 24 26 28 29
50 48 46 45 41 35 29 30 31 30 27 23 22 21 21 20 21 21 4 8 12 16 6 7 13 30 26 22 26 26 22 19 19 24 26 28 15 11 6 8 13 14 16 20 24 34 27 27 24 26 27 25 29 26
49 47 47 47 43 37 32 32 31 31 28 24 20 19 18 17 23 21 19 11 4 14 4 6 12 18 37 17 21 29 21 21 18 21 15 14 18 14 11 17 29 26 22 20 14 7 13 23 31 32 29 30 30 32
48 47 47 46 44 40 37 37 35 33 30 24 19 16 8 11 20 20 16 8 4 8 5 9 13 13 37 30 29 27 22 11 15 14 22 18 15 13 15 19 33 21 19 8 13 18 26 31 33 32 31 32 33 34
50 48 46 43 44 40 39 39 40 36 32 26 22 11 16 21 18 9 9 7 8 11 6 11 41 17 29 38 19 18 20 11 11 20 27 10 22 27 24 24 30 43 33 32 31 30 31 31 33 34 32 31 31 36
52 50 48 46 46 43 45 45 46 41 38 30 20 16 8 20 18 14 13 13 13 9 18 27 40 13 27 8 11 13 9 8 11 22 20 17 22 25 27 21 21 35 36 33 21 21 28 30 35 36 34 33 35 37
54 53 50 47 48 48 51 52 52 51 37 31 12 13 15 16 14 11 11 10 9 12 28 32 41 30 14 6 9 13 7 5 15 27 21 27 23 34 36 27 20 27 34 34 28 24 28 31 35 35 35 36 37 37
58 56 53 51 52 54 58 60 59 47 33 27 13 13 11 12 10 12 17 9 9 14 20 26 28 26 14 9 7 8 12 13 9 14 16 21 32 42 46 29 24 28 33 31 26 31 32 36 35 36 37 37 39 38
56 56 53 53 56 61 62 58 61 49 40 18 14 6 10 12 14 15 18 15 13 8 25 19 31 24 16 10 5 10 8 6 12 19 22 17 32 39 45 41 37 38 36 34 34 35 38 39 37 35 36 39 40 40
58 54 54 54 63 64 64 60 66 47 18 13 13 10 17 26 20 18 16 4 4 15 19 19 22 19 15 9 12 11 8 14 14 19 16 35 36 40 43 42 39 39 39 37 37 39 39 39 40 38 37 37 37 39
60 53 58 65 65 64 64 63 61 34 8 9 14 13 17 22 21 17 15 7 7 12 18 18 8 11 13 12 9 14 8 14 12 11 24 27 27 33 36 37 37 38 39 39 38 39 41 42 41 39 39 37 37 38
67 40 68 69 67 67 71 72 34 15 13 10 18 25 20 24 6 6 9 7 19 11 9 12 11 17 11 17 18 7 9 9 16 26 23 24 22 27 31 34 38 40 41 40 40 42 43 41 40 41 41 38 36 35
59 46 72 73 74 78 73 41 15 19 14 22 19 28 24 24 7 8 10 14 13 8 9 7 24 22 22 25 27 22 16 13 12 13 15 14 20 24 30 36 39 42 41 41 43 44 44 44 42 39 38 37 35 34
52 60 78 83 89 61 13 21 13 15 23 27 33 20 15 24 16 9 8 4 9 6 13 16 11 15 21 24 31 38 34 14 11 11 11 14 20 26 32 37 41 43 44 44 45 41 41 40 37 37 36 37 32 31
52 74 83 82 76 14 9 9 17 9 14 27 26 30 30 25 22 16 13 14 4 1 12 9 12 22 35 28 31 40 25 18 15 11 11 14 20 29 36 42 44 47 46 43 39 40 39 37 34 33 33 33 29 29
72 82 76 77 42 10 8 15 19 17 11 16 22 28 28 27 30 24 22 21 7 7 13 37 30 8 10 15 12 11 17 21 14 3 18 20 24 30 39 41 46 46 46 44 42 40 40 35 34 33 33 31 27 26
77 83 68 48 6 4 6 14 14 18 14 15 14 21 22 29 30 33 31 30 35 38 45 52 30 24 14 15 8 13 7 11 10 10 15 25 29 37 43 46 49 46 43 41 40 41 35 34 34 33 33 29 28 26
85 65 40 10 8 11 8 20 15 15 9 11 12 7 7 20 31 34 30 36 44 39 44 48 48 40 47 12 7 6 2 10 13 14 21 20 27 35 41 45 44 44 42 39 37 37 35 36 37 33 31 30 29 26
66 17 14 21 15 7 17 12 12 12 15 13 7 15 22 23 32 36 23 38 39 34 49 51 42 37 23 15 10 5 5 12 15 16 19 27 33 38 43 43 41 38 37 40 38 36 36 35 36 32 30 31 28 27
10 8 14 3 12 12 11 10 15 11 13 20 23 15 9 17 11 18 26 40 45 46 42 38 39 39 35 27 20 15 15 18 21 20 22 26 34 42 43 40 38 37 39 41 39 37 37 35 32 31 31 30 29 30
6 10 14 19 18 16 13 14 19 18 13 12 12 13 26 13 21 15 23 47 46 48 43 39 35 37 36 32 24 16 12 15 16 20 24 30 38 47 50 51 46 40 35 34 38 40 37 35 34 34 32 32 34 32
11 10 17 21 21 18 9 18 19 22 15 12 11 23 12 11 15 15 32 34 50 51 42 39 35 35 37 36 29 17 18 17 20 22 26 31 36 40 44 44 44 41 38 37 38 38 39 38 38 35 34 33 33 30
8 13 20 24 14 21 10 7 10 15 15 18 20 12 11 9 4 14 10 11 3 45 37 37 34 33 34 33 28 20 16 20 24 30 32 35 37 37 36 37 39 44 39 38 38 38 37 38 37 36 36 34 31 28
13 19 21 18 26 14 20 14 15 19 19 20 18 22 13 6 18 29 38 31 23 22 38 39 37 33 29 28 23 21 27 31 41 51 53 53 52 46 42 44 50 41 41 47 44 39 38 37 36 36 34 32 29 26
20 25 18 23 21 18 26 31 25 29 31 29 33 41 42 44 38 49 52 26 31 31 42 46 42 42 39 35 29 25 26 34 41 53 57 58 54 48 51 49 45 43 43 44 45 50 46 42 41 36 32 29 26 24
34 37 30 23 16 33 34 28 29 32 32 32 33 37 42 36 62 55 28 23 32 34 44 47 40 37 39 31 28 32 35 39 47 49 49 48 52 52 49 47 47 45 44 45 46 46 44 39 34 31 27 24 24 23
30 27 36 28 30 35 23 17 22 34 33 35 37 35 32 19 18 23 19 20 35 43 43 45 38 38 28 19 23 31 41 48 55 57 56 56 51 50 51 48 47 45 46 45 43 43 40 33 31 28 26 23 24 20
37 33 34 23 9 7 16 13 12 13 25 34 37 41 32 17 18 14 22 21 37 41 41 40 33 42 23 28 33 41 47 51 58 62 60 56 59 57 50 47 46 46 46 43 42 40 37 33 31 30 28 27 26 24
Wind_Direction_500mb
207 209 212 217 223 225 224 224 226 231 232 237 234 230 229 232 255 268 260 230 235 231 261 287 264 294 326 277 271 38 228 206 225 241 248 240 91 314 203 140 168 180 163 236 225 207 220 165 174 221 126 134 146 155
209 211 212 216 221 223 222 222 224 227 230 235 234 230 227 225 245 263 249 243 275 244 258 267 275 260 265 280 318 303 328 319 23 290 278 48 90 3 228 156 133 208 177 335 346 85 320 157 74 117 135 150 154 153
210 212 213 213 216 221 223 222 223 223 227 229 232 231 228 224 234 247 257 256 253 290 293 259 257 254 250 250 249 278 97 1 86 336 320 58 264 193 203 153 175 167 146 233 242 142 155 157 143 158 153 145 146 152
213 213 215 212 213 222 223 225 223 223 224 226 230 229 229 225 228 235 273 244 230 292 272 283 233 237 243 239 237 242 264 300 297 288 281 286 276 355 24 45 291 112 157 177 319 129 139 165 170 165 160 146 141 148
213 213 214 211 212 220 227 223 222 223 223 224 225 226 229 226 226 248 262 260 212 234 317 293 300 242 221 221 228 234 244 270 274 244 225 244 328 304 317 287 236 170 214 205 101 140 98 127 156 156 152 147 148 152
212 213 213 211 212 218 228 219 220 219 219 219 221 223 227 225 217 255 220 253 227 222 292 296 288 244 211 215 218 220 230 242 236 244 250 262 359 287 230 209 33 82 70 43 107 101 108 125 137 144 145 146 149 152
211 212 211 212 212 215 223 219 216 217 211 213 217 219 224 224 211 237 279 166 198 176 234 274 251 215 198 191 213 219 223 230 229 233 237 251 182 215 231 197 111 106 101 100 113 105 109 128 141 143 144 146 145 148
210 210 211 213 214 215 219 218 214 211 203 204 210 212 222 227 231 241 249 282 297 191 258 251 268 166 186 187 212 205 205 208 218 240 232 232 192 230 242 192 146 136 103 126 165 34 159 147 142 142 146 144 147 149
209 208 210 213 215 214 217 216 209 201 194 193 193 194 211 215 218 214 225 262 261 198 273 258 252 205 175 203 217 191 208 209 216 216 235 210 220 215 208 252 191 207 184 163 174 138 143 151 149 148 152 155 154 152
207 208 209 213 210 213 211 203 196 190 183 177 163 180 207 199 215 198 189 201 207 201 238 262 247 272 200 189 214 175 193 221 208 214 214 222 237 203 225 217 236 182 169 176 175 160 167 164 161 162 163 159 157 158
210 210 208 211 213 208 202 193 185 177 171 163 186 213 159 168 180 192 209 203 179 210 211 236 234 247 230 225 207 215 193 223 220 178 198 204 222 191 194 204 192 186 192 195 190 176 180 174 169 166 162 159 159 160
211 207 211 214 205 200 194 186 182 175 171 179 191 185 153 182 210 210 193 191 203 225 188 209 204 209 246 225 95 272 230 226 229 148 192 227 199 166 165 172 146 170 175 172 177 170 168 168 169 166 161 159 160 161
204 208 209 205 198 193 186 186 186 171 174 181 214 197 193 196 212 212 193 186 216 213 208 190 187 197 207 177 78 300 211 235 160 196 195 216 135 156 167 161 172 170 168 162 159 161 160 161 162 162 159 159 160 161
202 200 199 195 190 184 183 190 172 168 178 200 196 237 222 203 215 213 226 187 205 310 317 252 178 188 189 158 117 267 251 309 223 195 199 165 157 166 169 172 169 170 165 165 162 160 157 156 155 157 160 161 161 162
193 192 190 189 183 182 184 180 172 170 194 219 203 221 209 240 282 206 142 138 297 307 319 269 193 206 195 172 185 225 242 187 218 202 184 138 146 162 168 167 166 166 165 164 162 159 156 154 156 157 160 161 162 162
184 183 189 182 179 178 174 174 168 182 229 232 224 247 232 219 236 208 200 148 247 295 300 254 220 187 213 166 188 216 228 217 161 142 94 116 151 162 161 160 161 163 164 161 162 159 157 158 159 158 158 162 165 164
179 175 178 175 171 169 171 167 166 198 207 238 223 222 240 214 216 355 139 157 200 270 232 200 211 196 171 215 213 229 201 57 83 94 91 100 145 159 160 158 160 163 162 160 159 158 157 156 156 156 159 164 166 167
171 174 171 166 162 168 170 162 178 190 205 233 259 209 210 227 163 197 143 198 212 233 292 346 307 210 212 203 207 231 222 111 76 91 104 122 132 152 160 159 158 160 159 158 157 155 156 158 158 160 160 163 165 170
169 169 165 165 168 154 134 183 203 198 212 208 233 254 227 207 207 196 156 182 235 285 302 296 251 229 206 228 209 217 230 116 89 101 115 129 146 155 156 155 156 156 156 156 155 156 161 162 162 165 164 165 167 171
165 164 166 169 167 136 141 144 182 204 218 212 221 242 225 226 224 206 193 186 151 322 238 234 234 229 213 221 233 214 215 156 118 142 146 137 148 154 157 157 156 153 150 151 151 154 157 158 165 168 172 173 175 178
159 165 165 166 165 162 155 161 176 206 210 216 221 229 231 225 232 219 215 193 154 223 246 229 261 221 38 203 344 94 126 146 177 9 135 150 150 155 155 155 154 154 153 152 155 159 161 165 166 169 174 175 178 180
151 161 154 165 137 170 185 186 180 183 207 217 195 215 229 232 225 220 225 215 229 226 239 243 272 251 258 219 68 79 140 151 131 135 141 145 152 159 160 160 158 156 155 157 159 161 163 164 165 168 167 172 172 175
152 154 157 125 154 201 216 179 178 196 207 210 214 228 221 241 231 224 215 228 233 236 238 248 255 233 249 89 64 34 151 170 152 154 158 154 158 161 160 159 159 156 154 158 160 161 162 166 162 162 168 165 165 170
153 127 163 184 174 169 153 175 188 208 208 204 217 245 229 208 212 217 233 230 235 237 238 239 242 252 265 265 257 220 192 173 168 162 159 157 156 159 159 157 158 158 159 155 159 160 161 158 160 164 163 165 168 166
139 185 155 237 152 141 172 187 183 195 207 208 222 250 234 227 219 227 226 233 230 233 225 229 226 226 233 231 231 208 199 180 179 168 167 165 161 158 157 158 157 158 159 157 159 157 157 160 159 161 165 165 166 165
144 180 178 181 169 181 189 204 200 201 207 198 197 239 241 223 225 240 227 232 231 224 222 219 220 216 217 225 232 191 211 187 188 189 182 177 174 171 165 159 157 156 162 161 157 159 157 158 162 161 159 162 162 161
176 183 190 197 185 167 181 215 222 202 201 210 219 216 214 229 227 229 225 225 216 221 218 215 214 211 210 209 212 205 194 194 192 194 180 175 177 178 173 167 162 158 157 156 158 158 158 159 158 156 155 155 155 159
208 170 185 175 182 198 181 208 206 207 204 217 219 216 234 224 36 13 333 257 281 206 204 205 206 204 203 196 192 186 176 168 167 159 158 159 164 165 162 159 159 151 148 150 152 155 156 155 155 157 155 154 155 160
198 187 196 193 182 201 209 215 242 228 210 216 232 237 282 300 340 326 325 307 229 203 196 189 185 183 170 167 166 167 171 172 170 166 161 156 155 153 157 153 146 144 146 149 147 150 150 151 153 153 152 150 150 151
203 187 190 203 202 211 216 211 233 232 241 257 261 271 274 284 295 297 310 285 211 207 183 176 170 169 165 159 157 163 172 172 177 170 163 160 157 153 145 143 144 144 145 145 146 148 150 149 146 145 145 146 150 156
207 200 204 201 209 230 235 240 244 255 265 267 266 276 281 298 298 297 292 214 199 184 174 174 168 170 166 160 157 163 164 168 170 170 164 156 150 146 145 144 145 146 146 145 144 144 147 147 148 149 152 154 151 157
211 219 212 223 241 241 252 260 257 255 257 268 257 250 265 284 293 280 249 196 183 171 174 170 157 149 161 180 174 170 168 165 160 160 153 150 148 145 145 146 147 146 144 143 145 150 149 150 151 152 150 149 147 139
209 208 210 219 198 211 203 206 236 254 242 241 244 240 230 224 260 238 188 179 173 167 153 156 157 172 169 166 167 166 160 156 154 150 153 150 145 144 147 148 147 144 144 143 144 148 149 149 148 146 144 143 140 139
Wind_Speed_850mb
48 43 37 33 31 29 27 27 25 20 18 17 18 18 18 16 12 7 14 16 15 18 45 18 21 21 15 13 18 12 11 16 15 22 23 19 9 10 12 17 33 20 16 16 19 16 16 23 18 27 4 5 13 19
49 43 38 34 31 28 26 28 28 25 20 18 18 19 19 19 13 11 14 14 12 19 25 22 27 27 23 15 20 15 10 6 22 9 11 3 9 5 24 17 5 9 6 6 21 9 12 25 15 16 10 15 15 20
49 44 40 36 34 29 24 25 27 28 23 20 19 19 19 21 15 11 15 19 13 17 29 45 49 34 34 30 21 16 11 10 3 10 17 4 35 16 18 12 23 12 7 4 6 21 21 23 13 13 11 14 17 23
49 45 41 38 36 29 28 24 26 28 25 22 20 19 21 22 18 11 10 14 12 11 11 22 16 41 33 27 27 29 25 19 18 16 20 9 12 6 12 12 9 10 14 6 4 8 13 17 18 15 15 18 23 28
50 46 43 40 38 30 27 29 27 28 26 22 20 21 21 22 20 12 13 15 17 15 9 25 38 27 25 24 27 26 24 20 18 15 13 11 9 7 3 2 15 23 15 11 3 18 10 21 21 19 22 25 28 33
50 48 45 42 37 33 27 31 29 28 26 23 21 21 21 21 21 13 13 21 19 17 8 8 22 24 29 29 26 26 23 20 21 14 15 9 3 8 8 7 15 12 18 15 15 15 27 29 25 23 24 26 28 29
50 48 46 45 41 35 29 30 31 30 27 23 22 21 21 20 21 21 4 8 12 16 6 7 13 30 26 22 26 26 22 19 19 24 26 28 15 11 6 8 13 14 16 20 24 34 27 27 24 26 27 25 29 26
49 47 47 47 43 37 32 32 31 31 28 24 20 19 18 17 23 21 19 11 4 14 4 6 12 18 37 17 21 29 21 21 18 21 15 14 18 14 11 17 29 26 22 20 14 7 13 23 31 32 29 30 30 32
48 47 47 46 44 40 37 37 35 33 30 24 19 16 8 11 20 20 16 8 4 8 5 9 13 13 37 30 29 27 22 11 15 14 22 18 15 13 15 19 33 21 19 8 13 18 26 31 33 32 31 32 33 34
50 48 46 43 44 40 39 39 40 36 32 26 22 11 16 21 18 9 9 7 8 11 6 11 41 17 29 38 19 18 20 11 11 20 27 10 22 27 24 24 30 43 33 32 31 30 31 31 33 34 32 31 31 36
52 50 48 46 46 43 45 45 46 41 38 30 20 16 8 20 18 14 13 13 13 9 18 27 40 13 27 8 11 13 9 8 11 22 20 17 22 25 27 21 21 35 36 33 21 21 28 30 35 36 34 33 35 37
54 53 50 47 48 48 51 52 52 51 37 31 12 13 15 16 14 11 11 10 9 12 28 32 41 30 14 6 9 13 7 5 15 27 21 27 23 34 36 27 20 27 34 34 28 24 28 31 35 35 35 36 37 37
58 56 53 51 52 54 58 60 59 47 33 27 13 13 11 12 10 12 17 9 9 14 20 26 28 26 14 9 7 8 12 13 9 14 16 21 32 42 46 29 24 28 33 31 26 31 32 36 35 36 37 37 39 38
56 56 53 53 56 61 62 58 61 49 40 18 14 6 10 12 14 15 18 15 13 8 25 19 31 24 16 10 5 10 8 6 12 19 22 17 32 39 45 41 37 38 36 34 34 35 38 39 37 35 36 39 40 40
58 54 54 54 63 64 64 60 66 47 18 13 13 10 17 26 20 18 16 4 4 15 19 19 22 19 15 9 12 11 8 14 14 19 16 35 36 40 43 42 39 39 39 37 37 39 39 39 40 38 37 37 37 39
60 53 58 65 65 64 64 63 61 34 8 9 14 13 17 22 21 17 15 7 7 12 18 18 8 11 13 12 9 14 8 14 12 11 24 27 27 33 36 37 37 38 39 39 38 39 41 42 41 39 39 37 37 38
67 40 68 69 67 67 71 72 34 15 13 10 18 25 20 24 6 6 9 7 19 11 9 12 11 17 11 17 18 7 9 9 16 26 23 24 22 27 31 34 38 40 41 40 40 42 43 41 40 41 41 38 36 35
59 46 72 73 74 78 73 41 15 19 14 22 19 28 24 24 7 8 10 14 13 8 9 7 24 22 22 25 27 22 16 13 12 13 15 14 20 24 30 36 39 42 41 41 43 44 44 44 42 39 38 37 35 34
52 60 78 83 89 61 13 21 13 15 23 27 33 20 15 24 16 9 8 4 9 6 13 16 11 15 21 24 31 38 34 14 11 11 11 14 20 26 32 37 41 43 44 44 45 41 41 40 37 37 36 37 32 31
52 74 83 82 76 14 9 9 17 9 14 27 26 30 30 25 22 16 13 14 4 1 12 9 12 22 35 28 31 40 25 18 15 11 11 14 20 29 36 42 44 47 46 43 39 40 39 37 34 33 33 33 29 29
72 82 76 77 42 10 8 15 19 17 11 16 22 28 28 27 30 24 22 21 7 7 13 37 30 8 10 15 12 11 17 21 14 3 18 20 24 30 39 41 46 46 46 44 42 40 40 35 34 33 33 31 27 26
77 83 68 48 6 4 6 14 14 18 14 15 14 21 22 29 30 33 31 30 35 38 45 52 30 24 14 15 8 13 7 11 10 10 15 25 29 37 43 46 49 46 43 41 40 41 35 34 34 33 33 29 28 26
85 65 40 10 8 11 8 20 15 15 9 11 12 7 7 20 31 34 30 36 44 39 44 48 48 40 47 12 7 6 2 10 13 14 21 20 27 35 41 45 44 44 42 39 37 37 35 36 37 33 31 30 29 26
66 17 14 21 15 7 17 12 12 12 15 13 7 15 22 23 32 36 23 38 39 34 49 51 42 37 23 15 10 5 5 12 15 16 19 27 33 38 43 43 41 38 37 40 38 36 36 35 36 32 30 31 28 27
10 8 14 3 12 12 11 10 15 11 13 20 23 15 9 17 11 18 26 40 45 46 42 38 39 39 35 27 20 15 15 18 21 20 22 26 34 42 43 40 38 37 39 41 39 37 37 35 32 31 31 30 29 30
6 10 14 19 18 16 13 14 19 18 13 12 12 13 26 13 21 15 23 47 46 48 43 39 35 37 36 32 24 16 12 15 16 20 24 30 38 47 50 51 46 40 35 34 38 40 37 35 34 34 32 32 34 32
11 10 17 21 21 18 9 18 19 22 15 12 11 23 12 11 15 15 32 34 50 51 42 39 35 35 37 36 29 17 18 17 20 22 26 31 36 40 44 44 44 41 38 37 38 38 39 38 38 35 34 33 33 30
8 13 20 24 14 21 10 7 10 15 15 18 20 12 11 9 4 14 10 11 3 45 37 37 34 33 34 33 28 20 16 20 24 30 32 35 37 37 36 37 39 44 39 38 38 38 37 38 37 36 36 34 31 28
13 19 21 18 26 14 20 14 15 19 19 20 18 22 13 6 18 29 38 31 23 22 38 39 37 33 29 28 23 21 27 31 41 51 53 53 52 46 42 44 50 41 41 47 44 39 38 37 36 36 34 32 29 26
20 25 18 23 21 18 26 31 25 29 31 29 33 41 42 44 38 49 52 26 31 31 42 46 42 42 39 35 29 25 26 34 41 53 57 58 54 48 51 49 45 43 43 44 45 50 46 42 41 36 32 29 26 24
34 37 30 23 16 33 34 28 29 32 32 32 33 37 42 36 62 55 28 23 32 34 44 47 40 37 39 31 28 32 35 39 47 49 49 48 52 52 49 47 47 45 44 45 46 46 44 39 34 31 27 24 24 23
30 27 36 28 30 35 23 17 22 34 33 35 37 35 32 19 18 23 19 20 35 43 43 45 38 38 28 19 23 31 41 48 55 57 56 56 51 50 51 48 47 45 46 45 43 43 40 33 31 28 26 23 24 20
37 33 34 23 9 7 16 13 12 13 25 34 37 41 32 17 18 14 22 21 37 41 41 40 33 42 23 28 33 41 47 51 58 62 60 56 59 57 50 47 46 46 46 43 42 40 37 33 31 30 28 27 26 24
Wind_Direction_850mb
207 209 212 217 223 225 224 224 226 231 232 237 234 230 229 232 255 268 260 230 235 231 261 287 264 294 326 277 271 38 228 206 225 241 248 240 91 314 203 140 168 180 163 236 225 207 220 165 174 221 126 134 146 155
209 211 212 216 221 223 222 222 224 227 230 235 234 230 227 225 245 263 249 243 275 244 258 267 275 260 265 280 318 303 328 319 23 290 278 48 90 3 228 156 133 208 177 335 346 85 320 157 74 117 135 150 154 153
210 212 213 213 216 221 223 222 223 223 227 229 232 231 228 224 234 247 257 256 253 290 293 259 257 254 250 250 249 278 97 1 86 336 320 58 264 193 203 153 175 167 146 233 242 142 155 157 143 158 153 145 146 152
213 213 215 212 213 222 223 225 223 223 224 226 230 229 229 225 228 235 273 244 230 292 272 283 233 237 243 239 237 242 264 300 297 288 281 286 276 355 24 45 291 112 157 177 319 129 139 165 170 165 160 146 141 148
213 213 214 211 212 220 227 223 222 223 223 224 225 226 229 226 226 248 262 260 212 234 317 293 300 242 221 221 228 234 244 270 274 244 225 244 328 304 317 287 236 170 214 205 101 140 98 127 156 156 152 147 148 152
212 213 213 211 212 218 228 219 220 219 219 219 221 223 227 225 217 255 220 253 227 222 292 296 288 244 211 215 218 220 230 242 236 244 250 262 359 287 230 209 33 82 70 43 107 101 108 125 137 144 145 146 149 152
211 212 211 212 212 215 223 219 216 217 211 213 217 219 224 224 211 237 279 166 198 176 234 274 251 215 198 191 213 219 223 230 229 233 237 251 182 215 231 197 111 106 101 100 113 105 109 128 141 143 144 146 145 148
210 210 211 213 214 215 219 218 214 211 203 204 210 212 222 227 231 241 249 282 297 191 258 251 268 166 186 187 212 205 205 208 218 240 232 232 192 230 242 192 146 136 103 126 165 34 159 147 142 142 146 144 147 149
209 208 210 213 215 214 217 216 209 201 194 193 193 194 211 215 218 214 225 262 261 198 273 258 252 205 175 203 217 191 208 209 216 216 235 210 220 215 208 252 191 207 184 163 174 138 143 151 149 148 152 155 154 152
207 208 209 213 210 213 211 203 196 190 183 177 163 180 207 199 215 198 189 201 207 201 238 262 247 272 200 189 214 175 193 221 208 214 214 222 237 203 225 217 236 182 169 176 175 160 167 164 161 162 163 159 157 158
210 210 208 211 213 208 202 193 185 177 171 163 186 213 159 168 180 192 209 203 179 210 211 236 234 247 230 225 207 215 193 223 220 178 198 204 222 191 194 204 192 186 192 195 190 176 180 174 169 166 162 159 159 160
211 207 211 214 205 200 194 186 182 175 171 179 191 185 153 182 210 210 193 191 203 225 188 209 204 209 246 225 95 272 230 226 229 148 192 227 199 166 165 172 146 170 175 172 177 170 168 168 169 166 161 159 160 161
204 208 209 205 198 193 186 186 186 171 174 181 214 197 193 196 212 212 193 186 216 213 208 190 187 197 207 177 78 300 211 235 160 196 195 216 135 156 167 161 172 170 168 162 159 161 160 161 162 162 159 159 160 161
202 200 199 195 190 184 183 190 172 168 178 200 196 237 222 203 215 213 226 187 205 310 317 252 178 188 189 158 117 267 251 309 223 195 199 165 157 166 169 172 169 170 165 165 162 160 157 156 155 157 160 161 161 162
193 192 190 189 183 182 184 180 172 170 194 219 203 221 209 240 282 206 142 138 297 307 319 269 193 206 195 172 185 225 242 187 218 202 184 138 146 162 168 167 166 166 165 164 162 159 156 154 156 157 160 161 162 162
184 183 189 182 179 178 174 174 168 182 229 232 224 247 232 219 236 208 200 148 247 295 300 254 220 187 213 166 188 216 228 217 161 142 94 116 151 162 161 160 161 163 164 161 162 159 157 158 159 158 158 162 165 164
179 175 178 175 171 169 171 167 166 198 207 238 223 222 240 214 216 355 139 157 200 270 232 200 211 196 171 215 213 229 201 57 83 94 91 100 145 159 160 158 160 163 162 160 159 158 157 156 156 156 159 164 166 167
171 174 171 166 162 168 170 162 178 190 205 233 259 209 210 227 163 197 143 198 212 233 292 346 307 210 212 203 207 231 222 111 76 91 104 122 132 152 160 159 158 160 159 158 157 155 156 158 158 160 160 163 165 170
169 169 165 165 168 154 134 183 203 198 212 208 233 254 227 207 207 196 156 182 235 285 302 296 251 229 206 228 209 217 230 116 89 101 115 129 146 155 156 155 156 156 156 156 155 156 161 162 162 165 164 165 167 171
165 164 166 169 167 136 141 144 182 204 218 212 221 242 225 226 224 206 193 186 151 322 238 234 234 229 213 221 233 214 215 156 118 142 146 137 148 154 157 157 156 153 150 151 151 154 157 158 165 168 172 173 175 178
159 165 165 166 165 162 155 161 176 206 210 216 221 229 231 225 232 219 215 193 154 223 246 229 261 221 38 203 344 94 126 146 177 9 135 150 150 155 155 155 154 154 153 152 155 159 161 165 166 169 174 175 178 180
151 161 154 165 137 170 185 186 180 183 207 217 195 215 229 232 225 220 225 215 229 226 239 243 272 251 258 219 68 79 140 151 131 135 141 145 152 159 160 160 158 156 155 157 159 161 163 164 165 168 167 172 172 175
152 154 157 125 154 201 216 179 178 196 207 210 214 228 221 241 231 224 215 228 233 236 238 248 255 233 249 89 64 34 151 170 152 154 158 154 158 161 160 159 159 156 154 158 160 161 162 166 162 162 168 165 165 170
153 127 163 184 174 169 153 175 188 208 208 204 217 245 229 208 212 217 233 230 235 237 238 239 242 252 265 265 257 220 192 173 168 162 159 157 156 159 159 157 158 158 159 155 159 160 161 158 160 164 163 165 168 166
139 185 155 237 152 141 172 187 183 195 207 208 222 250 234 227 219 227 226 233 230 233 225 229 226 226 233 231 231 208 199 180 179 168 167 165 161 158 157 158 157 158 159 157 159 157 157 160 159 161 165 165 166 165
144 180 178 181 169 181 189 204 200 201 207 198 197 239 241 223 225 240 227 232 231 224 222 219 220 216 217 225 232 191 211 187 188 189 182 177 174 171 165 159 157 156 162 161 157 159 157 158 162 161 159 162 162 161
176 183 190 197 185 167 181 215 222 202 201 210 219 216 214 229 227 229 225 225 216 221 218 215 214 211 210 209 212 205 194 194 192 194 180 175 177 178 173 167 162 158 157 156 158 158 158 159 158 156 155 155 155 159
208 170 185 175 182 198 181 208 206 207 204 217 219 216 234 224 36 13 333 257 281 206 204 205 206 204 203 196 192 186 176 168 167 159 158 159 164 165 162 159 159 151 148 150 152 155 156 155 155 157 155 154 155 160
198 187 196 193 182 201 209 215 242 228 210 216 232 237 282 300 340 326 325 307 229 203 196 189 185 183 170 167 166 167 171 172 170 166 161 156 155 153 157 153 146 144 146 149 147 150 150 151 153 153 152 150 150 151
203 187 190 203 202 211 216 211 233 232 241 257 261 271 274 284 295 297 310 285 211 207 183 176 170 169 165 159 157 163 172 172 177 170 163 160 157 153 145 143 144 144 145 145 146 148 150 149 146 145 145 146 150 156
207 200 204 201 209 230 235 240 244 255 265 267 266 276 281 298 298 297 292 214 199 184 174 174 168 170 166 160 157 163 164 168 170 170 164 156 150 146 145 144 145 146 146 145 144 144 147 147 148 149 152 154 151 157
211 219 212 223 241 241 252 260 257 255 257 268 257 250 265 284 293 280 249 196 183 171 174 170 157 149 161 180 174 170 168 165 160 160 153 150 148 145 145 146 147 146 144 143 145 150 149 150 151 152 150 149 147 139
209 208 210 219 198 211 203 206 236 254 242 241 244 240 230 224 260 238 188 179 173 167 153 156 157 172 169 166 167 166 160 156 154 150 153 150 145 144 147 148 147 144 144 143 144 148 149 149 148 146 144 143 140 139